INSAT-4CR

Last updated on Nov. 15, 2019, 4:20 a.m. UTC

1 32050U 07037A   19318.56521205  .00000139  00000-0  00000+0 0  9997
2 32050   0.8270  95.0410 0009006 162.1714  47.5212  1.00270237 44714
UTC
Height (km)
Latitude
Longitude
Inclination
Orbital Period
UTC large
Height (km)
Speed (km/s)
/
Latitude / Longitude
Inclination (degrees)
Orbital Period (minutes)
Azimuth
Elevation
Range (km)
Doppler Factor
iOS Compass Heading
iOS Angle

Next 30 passes for location: Hong Kong

Rise time Rise Azimuth (degrees) Set time Set Azimuth (degrees) Duration Max altitude (degrees)

No matching passes for this satellites